This demonstration page uses our WeatherBlox Daily Observations layout. Learn more.

Left ArrowRight Arrow

34.74481, -87.66753

Hourly Observations for June 17, 2017

Temp ( °F °C ) Dew Point ( °F °C ) Humidity (%) Winds ( mph kmh ) Pressure ( in mb ) Visibility ( mi km ) Precip ( " mm )
12:53 am 00:53 Clear 71 21.7 67 19.4 87 87 Calm 29.82 1010 10 16 0.00 0.00
1:53 am 01:53 Clear 70 21.1 66 18.9 87 87 Calm 29.81 1010 10 16 0.00 0.00
2:53 am 02:53 Clear 68 20 65 18.3 90 90 Calm 29.82 1010 10 16 0.00 0.00
3:53 am 03:53 Clear 67 19.4 65 18.3 93 93 Calm 29.82 1010 7 11 0.00 0.00
4:53 am 04:53 Clear with Mist and Fog 66 18.9 64 17.8 93 93 Calm 29.83 1010 5 8 0.00 0.00
5:29 am 05:29 Clear with Mist and Fog 65 18.3 63 17.2 93 93 SSE 3 6 29.83 1010 2 3 0.00 0.00
5:35 am 05:35 Clear with Mist and Fog 65 18.3 63 17.2 93 93 SSE 3 6 29.83 1010 3 5 0.00 0.00
5:53 am 05:53 Sunny 64 17.8 62 16.7 93 93 Calm 29.83 1010 10 16 0.00 0.00
6:53 am 06:53 Sunny 69 20.6 65 18.3 87 87 Calm 29.85 1011 10 16 0.00 0.00
7:53 am 07:53 Sunny 74 23.3 64 17.8 71 71 W 7 11 29.88 1012 10 16 0.00 0.00
8:53 am 08:53 Sunny 78 25.6 63 17.2 60 60 W 7 11 29.88 1012 10 16 0.00 0.00
9:53 am 09:53 Sunny 81 27.2 63 17.2 54 54 SSW 8 13 29.86 1011 10 16 0.00 0.00
10:53 am 10:53 Sunny 82 27.8 64 17.8 55 55 SSE 3 6 29.86 1011 10 16 0.00 0.00
11:53 am 11:53 Sunny 87 30.6 65 18.3 48 48 undefined N/A 29.85 1011 10 16 0.00 0.00
12:53 pm 12:53 Mostly Sunny 86 30 66 18.9 51 51 S 7 11 29.84 1010 10 16 0.00 0.00
1:53 pm 13:53 Sunny 89 31.7 66 18.9 47 47 S 10 17 29.80 1009 10 16 0.00 0.00
2:53 pm 14:53 Sunny 89 31.7 65 18.3 45 45 SSW 8 13 29.80 1009 10 16 0.00 0.00
3:53 pm 15:53 Mostly Sunny 89 31.7 65 18.3 45 45 SW 8 13 29.80 1009 10 16 0.00 0.00
4:53 pm 16:53 Mostly Sunny 91 32.8 64 17.8 41 41 WSW 8 13 29.80 1009 10 16 0.00 0.00
5:53 pm 17:53 Sunny 89 31.7 63 17.2 42 42 SSW 5 7 29.79 1009 10 16 0.00 0.00
6:53 pm 18:53 Sunny 88 31.1 64 17.8 45 45 SSW 6 9 29.79 1009 10 16 0.00 0.00
7:53 pm 19:53 Sunny 84 28.9 66 18.9 55 55 S 6 9 29.80 1009 10 16 0.00 0.00
8:53 pm 20:53 Clear 81 27.2 67 19.4 62 62 S 3 6 29.81 1010 10 16 0.00 0.00
9:53 pm 21:53 Clear 77 25 67 19.4 71 71 S 3 6 29.81 1010 10 16 0.00 0.00
10:53 pm 22:53 Clear 76 24.4 67 19.4 74 74 Calm 29.81 1010 10 16 0.00 0.00
11:53 pm 23:53 Clear 73 22.8 67 19.4 81 81 SSE 6 9 29.79 1009 10 16 0.00 0.00

Powered by AerisWeather